TimeMST,TemperatureF,Dew PointF,Humidity,Sea Level PressureIn,VisibilityMPH,Wind Direction,Wind SpeedMPH,Gust SpeedMPH,PrecipitationIn,Events,Conditions,WindDirDegrees,DateUTC
12:15 AM,32.0,32.0,100,30.01,10.0,SE,13.8,-,N/A,,Clear,130,2012-11-18 07:15:00
12:35 AM,32.0,32.0,100,30.00,10.0,ESE,18.4,25.3,N/A,,Clear,120,2012-11-18 07:35:00
12:55 AM,32.0,32.0,100,30.00,10.0,ESE,16.1,-,N/A,,Clear,120,2012-11-18 07:55:00
1:15 AM,32.0,32.0,100,30.00,10.0,ESE,16.1,-,N/A,,Clear,120,2012-11-18 08:15:00
1:35 AM,32.0,32.0,100,29.99,10.0,SE,17.3,-,N/A,,Clear,130,2012-11-18 08:35:00
1:55 AM,32.0,32.0,100,29.98,10.0,ESE,20.7,-,N/A,,Clear,120,2012-11-18 08:55:00
2:15 AM,32.0,32.0,100,29.97,10.0,ESE,21.9,-,N/A,,Clear,120,2012-11-18 09:15:00
2:35 AM,32.0,32.0,100,29.96,10.0,ESE,20.7,-,N/A,,Clear,120,2012-11-18 09:35:00
2:55 AM,32.0,32.0,100,29.96,10.0,SE,24.2,27.6,N/A,,Clear,130,2012-11-18 09:55:00
3:15 AM,32.0,32.0,100,29.96,10.0,SE,21.9,-,N/A,,Clear,130,2012-11-18 10:15:00
3:35 AM,32.0,32.0,100,29.96,10.0,SE,17.3,-,N/A,,Scattered Clouds,130,2012-11-18 10:35:00
3:55 AM,32.0,32.0,100,29.95,10.0,SE,18.4,-,N/A,,Scattered Clouds,140,2012-11-18 10:55:00
4:15 AM,32.0,32.0,100,29.94,10.0,SE,18.4,-,N/A,,Scattered Clouds,130,2012-11-18 11:15:00
4:35 AM,32.0,32.0,100,29.94,10.0,ESE,15.0,-,N/A,,Scattered Clouds,120,2012-11-18 11:35:00
4:55 AM,32.0,32.0,100,29.95,10.0,SE,16.1,20.7,N/A,,Scattered Clouds,140,2012-11-18 11:55:00
5:15 AM,32.0,32.0,100,29.95,10.0,SE,13.8,-,N/A,,Mostly Cloudy,130,2012-11-18 12:15:00
5:35 AM,32.0,32.0,100,29.96,10.0,SE,11.5,-,N/A,,Scattered Clouds,130,2012-11-18 12:35:00
6:15 AM,32.0,32.0,100,29.94,7.0,SE,17.3,-,N/A,,Scattered Clouds,130,2012-11-18 13:15:00
6:35 AM,32.0,32.0,100,29.94,10.0,SE,16.1,-,N/A,,Clear,140,2012-11-18 13:35:00
6:55 AM,32.0,32.0,100,29.94,10.0,ESE,13.8,-,N/A,,Clear,110,2012-11-18 13:55:00
7:15 AM,32.0,30.2,93,29.94,10.0,SE,13.8,-,N/A,,Clear,140,2012-11-18 14:15:00
7:35 AM,32.0,30.2,93,29.95,10.0,ESE,11.5,-,N/A,,Clear,120,2012-11-18 14:35:00
7:55 AM,32.0,32.0,100,29.96,10.0,ESE,9.2,-,N/A,,Clear,120,2012-11-18 14:55:00
8:15 AM,33.8,32.0,93,29.96,10.0,SE,9.2,-,N/A,,Clear,130,2012-11-18 15:15:00
8:35 AM,33.8,32.0,93,29.96,10.0,SE,10.4,-,N/A,,Clear,140,2012-11-18 15:35:00
8:55 AM,33.8,32.0,93,29.97,10.0,SE,8.1,-,N/A,,Clear,130,2012-11-18 15:55:00
9:15 AM,33.8,32.0,93,29.98,10.0,SE,6.9,-,N/A,,Clear,140,2012-11-18 16:15:00
9:35 AM,33.8,32.0,93,29.97,10.0,SE,8.1,-,N/A,,Clear,130,2012-11-18 16:35:00
10:15 AM,35.6,32.0,87,30.00,10.0,SE,10.4,-,N/A,,Clear,140,2012-11-18 17:15:00
10:35 AM,35.6,32.0,87,30.01,10.0,SE,10.4,-,N/A,,Clear,140,2012-11-18 17:35:00
10:55 AM,35.6,32.0,87,30.01,10.0,SE,10.4,-,N/A,,Clear,130,2012-11-18 17:55:00
11:15 AM,35.6,32.0,87,30.01,10.0,ESE,12.7,-,N/A,,Clear,120,2012-11-18 18:15:00
11:35 AM,37.4,32.0,81,30.01,10.0,SSE,8.1,-,N/A,,Clear,150,2012-11-18 18:35:00
11:55 AM,37.4,32.0,81,30.01,10.0,SE,9.2,-,N/A,,Clear,140,2012-11-18 18:55:00
12:15 PM,39.2,32.0,75,30.01,10.0,SSE,8.1,-,N/A,,Clear,150,2012-11-18 19:15:00
12:35 PM,41.0,32.0,70,30.01,10.0,South,6.9,-,N/A,,Clear,180,2012-11-18 19:35:00
12:55 PM,42.8,32.0,66,30.01,10.0,South,11.5,-,N/A,,Clear,170,2012-11-18 19:55:00
1:15 PM,42.8,32.0,66,30.01,10.0,South,6.9,-,N/A,,Clear,170,2012-11-18 20:15:00
1:35 PM,41.0,32.0,70,30.01,10.0,SSE,6.9,-,N/A,,Clear,150,2012-11-18 20:35:00
1:55 PM,42.8,32.0,66,30.00,10.0,SSE,10.4,-,N/A,,Clear,150,2012-11-18 20:55:00
2:15 PM,42.8,30.2,61,30.00,10.0,SSE,17.3,21.9,N/A,,Clear,160,2012-11-18 21:15:00
2:35 PM,42.8,30.2,61,30.00,10.0,SSE,18.4,-,N/A,,Clear,160,2012-11-18 21:35:00
2:55 PM,42.8,30.2,61,30.01,10.0,SSE,15.0,-,N/A,,Clear,160,2012-11-18 21:55:00
3:15 PM,42.8,30.2,61,30.02,10.0,South,12.7,-,N/A,,Clear,170,2012-11-18 22:15:00
3:35 PM,42.8,30.2,61,30.02,10.0,SSE,11.5,18.4,N/A,,Clear,160,2012-11-18 22:35:00
3:55 PM,41.0,30.2,65,30.02,10.0,SSE,10.4,19.6,N/A,,Scattered Clouds,150,2012-11-18 22:55:00
4:15 PM,41.0,30.2,65,30.04,10.0,SSE,10.4,19.6,N/A,,Mostly Cloudy,160,2012-11-18 23:15:00
4:35 PM,41.0,30.2,65,30.04,10.0,South,13.8,17.3,N/A,,Scattered Clouds,170,2012-11-18 23:35:00
4:55 PM,41.0,32.0,70,30.04,10.0,South,16.1,23.0,N/A,,Clear,170,2012-11-18 23:55:00
5:15 PM,39.2,32.0,75,30.05,10.0,South,15.0,18.4,N/A,,Clear,180,2012-11-19 00:15:00
5:35 PM,39.2,32.0,75,30.06,10.0,SSW,15.0,-,N/A,,Clear,200,2012-11-19 00:35:00
5:55 PM,39.2,30.2,70,30.08,10.0,South,13.8,-,N/A,,Scattered Clouds,190,2012-11-19 00:55:00
6:15 PM,37.4,30.2,75,30.08,10.0,SSW,15.0,-,N/A,,Scattered Clouds,210,2012-11-19 01:15:00
6:35 PM,39.2,26.6,61,30.07,10.0,SSW,17.3,-,N/A,,Scattered Clouds,200,2012-11-19 01:35:00
6:55 PM,41.0,24.8,53,30.08,10.0,SSW,16.1,-,N/A,,Clear,210,2012-11-19 01:55:00
7:15 PM,39.2,23.0,52,30.09,10.0,SSW,17.3,-,N/A,,Clear,210,2012-11-19 02:15:00
7:35 PM,37.4,23.0,56,30.10,10.0,SSW,13.8,-,N/A,,Clear,210,2012-11-19 02:35:00
7:55 PM,37.4,21.2,52,30.09,10.0,SSW,24.2,31.1,N/A,,Clear,210,2012-11-19 02:55:00
8:15 PM,37.4,21.2,52,30.09,10.0,SSW,27.6,34.5,N/A,,Clear,210,2012-11-19 03:15:00
8:35 PM,37.4,21.2,52,30.10,10.0,SSW,24.2,28.8,N/A,,Clear,210,2012-11-19 03:35:00
8:55 PM,39.2,19.4,45,30.10,10.0,SW,23.0,35.7,N/A,,Clear,220,2012-11-19 03:55:00
9:15 PM,37.4,19.4,48,30.12,10.0,SW,16.1,25.3,N/A,,Clear,220,2012-11-19 04:15:00
9:35 PM,37.4,19.4,48,30.12,10.0,SW,15.0,21.9,N/A,,Clear,220,2012-11-19 04:35:00
9:55 PM,37.4,17.6,45,30.13,10.0,SW,17.3,24.2,N/A,,Clear,230,2012-11-19 04:55:00
10:15 PM,37.4,19.4,48,30.13,10.0,SW,15.0,-,N/A,,Clear,230,2012-11-19 05:15:00
10:35 PM,37.4,19.4,48,30.15,10.0,WSW,13.8,-,N/A,,Clear,240,2012-11-19 05:35:00
10:55 PM,37.4,19.4,48,30.15,10.0,SW,11.5,-,N/A,,Clear,230,2012-11-19 05:55:00
11:35 PM,39.2,19.4,45,30.16,10.0,SW,10.4,-,N/A,,Overcast,220,2012-11-19 06:35:00
11:55 PM,33.8,23.0,65,30.17,10.0,SE,3.5,-,N/A,,Overcast,140,2012-11-19 06:55:00